Total_Precipitation_Accumulation
0.23 0.58 1.16 1.81 2.88 3.09 2.07 1.20 0.95 0.83 0.75 0.69 0.60 0.65 0.91 1.33 1.96 2.98 2.84 2.31 2.14 2.37 2.69 3.10 3.29 3.09 3.01 2.83 2.91 3.05 2.93 3.00 2.76 2.61 2.42 2.33 2.12 1.81 1.61 1.53 1.50 1.46 1.36 1.19 1.24 1.28 1.21 1.33 1.48
0.50 0.92 1.38 2.20 2.97 2.36 1.60 1.04 0.87 0.68 0.60 0.60 0.69 0.80 0.82 1.02 1.09 1.71 2.43 2.40 1.93 1.99 2.44 2.57 2.88 2.81 2.64 2.46 2.58 2.63 2.72 2.68 2.57 2.35 2.19 2.11 2.03 1.79 1.51 1.43 1.43 1.37 1.28 1.22 1.26 1.25 1.28 1.29 1.35
0.86 1.11 1.65 2.42 2.16 1.40 1.06 0.79 0.65 0.62 0.58 0.66 0.78 0.85 0.93 1.19 1.25 1.85 2.34 2.02 1.83 1.90 2.24 2.55 2.59 2.37 2.22 2.13 2.24 2.32 2.40 2.35 2.38 2.20 2.05 1.93 1.81 1.62 1.40 1.33 1.34 1.29 1.28 1.21 1.22 1.37 1.45 1.41 1.40
1.01 1.38 1.63 1.89 1.44 0.72 0.46 0.47 0.46 0.66 0.80 0.92 0.96 1.05 1.14 1.18 1.29 1.68 1.87 1.59 1.52 1.54 1.71 2.08 2.21 2.08 2.11 2.04 1.98 2.07 2.08 2.15 2.21 2.09 1.93 1.98 1.89 1.71 1.45 1.30 1.25 1.27 1.30 1.28 1.31 1.44 1.50 1.43 1.42
0.99 1.54 1.90 1.46 0.89 0.54 0.38 0.35 0.48 0.70 0.87 0.94 1.02 1.34 1.72 1.57 1.27 1.43 1.45 1.35 1.31 1.36 1.46 1.72 2.03 2.01 1.96 1.83 1.71 1.83 1.94 1.97 1.97 1.93 1.76 1.84 1.82 1.71 1.47 1.29 1.22 1.18 1.22 1.30 1.33 1.37 1.41 1.38 1.44
1.29 1.64 1.58 1.08 0.62 0.41 0.39 0.38 0.47 0.64 0.82 0.97 1.28 1.61 2.08 2.03 1.68 1.54 1.37 1.45 1.38 1.26 1.33 1.61 1.94 1.91 1.77 1.70 1.70 1.79 1.87 1.78 1.74 1.73 1.63 1.63 1.67 1.65 1.55 1.39 1.33 1.22 1.24 1.35 1.38 1.38 1.36 1.36 1.48
1.38 1.39 1.06 0.77 0.57 0.41 0.37 0.37 0.46 0.65 0.85 1.12 1.40 1.66 1.95 2.19 1.99 1.72 1.56 1.63 1.74 1.52 1.52 1.59 1.63 1.68 1.73 1.89 1.98 2.04 1.95 1.70 1.63 1.64 1.55 1.47 1.47 1.51 1.46 1.48 1.46 1.38 1.37 1.43 1.53 1.49 1.46 1.47 1.59
0.83 0.96 0.73 0.54 0.61 0.51 0.34 0.34 0.46 0.68 0.91 1.14 1.36 1.57 1.98 1.89 1.81 1.89 2.14 2.33 2.42 2.25 2.09 1.86 1.71 1.80 1.72 1.79 2.04 2.15 1.86 1.64 1.59 1.66 1.64 1.63 1.72 1.74 1.74 1.62 1.62 1.69 1.79 1.78 1.84 1.74 1.66 1.70 1.82
0.56 0.85 0.72 0.47 0.47 0.45 0.32 0.35 0.46 0.52 0.73 1.03 1.21 1.31 1.37 1.47 1.78 2.16 2.62 2.80 2.69 2.75 2.58 2.29 2.04 1.86 1.92 1.92 1.97 2.30 2.11 1.90 1.97 2.21 2.25 2.36 2.74 2.52 2.51 2.05 2.09 2.28 2.46 2.48 2.46 2.37 2.23 2.07 1.99
0.53 0.71 0.46 0.27 0.20 0.22 0.25 0.32 0.43 0.59 1.06 1.70 1.62 1.29 1.17 1.47 1.87 2.19 2.60 2.99 2.65 2.80 2.53 2.40 2.31 1.98 1.96 2.07 2.51 3.02 2.62 2.45 2.56 2.88 2.84 3.22 3.26 3.09 2.32 2.35 2.78 3.07 3.41 3.47 3.40 3.35 2.93 2.49 2.23
0.35 0.41 0.26 0.14 0.11 0.10 0.14 0.24 0.33 0.63 1.17 1.87 2.05 1.60 1.48 1.66 2.06 2.17 2.51 2.89 2.80 2.65 2.55 2.31 2.60 2.35 2.40 2.75 2.83 3.04 3.08 2.99 3.00 3.08 3.08 3.37 3.02 2.69 2.57 2.98 3.41 3.73 3.87 3.97 3.94 3.81 3.17 3.16 3.35
0.22 0.18 0.12 0.09 0.09 0.09 0.18 0.28 0.40 0.56 1.04 1.35 1.34 1.25 1.41 1.70 2.07 2.32 2.54 3.00 2.88 2.55 2.55 2.62 2.75 2.84 3.02 3.03 2.92 2.78 2.58 2.59 2.76 2.95 2.93 3.11 3.22 3.20 3.14 3.40 3.59 3.84 4.21 4.59 4.42 4.38 4.01 3.93 3.69
0.15 0.16 0.14 0.13 0.11 0.13 0.18 0.25 0.39 0.61 0.79 0.88 0.84 1.03 1.46 1.80 2.29 2.73 3.26 3.63 3.51 3.24 3.06 3.14 3.37 3.38 3.32 3.34 3.08 2.57 2.41 2.30 2.34 2.52 2.63 2.59 2.99 3.29 3.32 3.23 3.37 3.28 3.48 3.92 4.52 4.39 4.54 4.42 3.98
0.12 0.12 0.14 0.17 0.14 0.19 0.20 0.23 0.43 0.73 0.78 0.85 0.98 1.25 1.63 2.08 2.54 2.93 3.80 4.33 4.40 4.22 3.99 3.81 3.94 3.63 3.45 3.37 3.12 2.85 2.46 2.47 2.38 2.32 2.26 2.47 2.75 3.08 3.08 3.08 3.36 3.34 3.23 3.41 3.91 4.08 4.49 4.44 4.05
0.15 0.20 0.22 0.22 0.17 0.19 0.23 0.48 0.66 0.76 0.97 1.01 1.19 1.41 1.73 2.31 2.82 3.41 4.05 4.85 5.16 5.32 4.93 4.36 4.10 3.87 3.72 3.56 3.16 2.76 2.56 2.39 2.54 2.51 2.35 2.38 2.50 2.77 2.79 2.91 2.95 2.97 2.87 3.04 3.26 3.50 3.79 3.69 3.51
0.24 0.40 0.51 0.31 0.20 0.19 0.31 0.83 0.93 0.75 1.08 1.43 1.38 1.65 2.06 2.59 3.10 3.87 4.60 5.41 5.90 6.05 5.51 4.78 4.04 4.17 4.13 3.93 3.32 2.83 2.62 2.57 2.54 2.41 2.24 2.14 2.27 2.27 2.44 2.48 2.44 2.48 2.35 2.53 2.94 3.00 3.24 3.41 3.39
0.28 0.40 0.45 0.37 0.22 0.25 0.36 0.83 0.98 0.77 1.01 1.32 1.53 1.79 2.23 2.64 3.00 3.64 4.27 5.08 5.68 6.17 6.01 5.39 5.25 5.07 4.45 3.80 3.25 2.88 2.67 2.63 2.38 2.32 2.28 2.21 2.14 2.21 2.36 2.50 2.50 2.14 2.17 2.35 2.18 2.64 2.92 3.13 3.14
0.31 0.27 0.34 0.42 0.30 0.32 0.43 0.68 0.98 0.99 1.22 1.56 1.68 1.78 2.04 2.30 2.63 3.09 3.67 4.12 4.71 5.20 5.11 5.04 5.18 4.79 4.20 3.58 3.17 2.97 2.75 2.50 2.31 2.27 2.36 2.32 2.24 2.23 2.56 2.38 2.21 2.01 2.36 2.68 2.73 3.05 2.99 2.85 2.86
0.20 0.21 0.30 0.36 0.31 0.40 0.55 0.73 1.00 1.16 1.41 1.70 1.68 1.64 1.69 1.96 2.28 2.48 2.88 3.28 3.56 3.72 3.84 4.16 4.34 4.12 3.67 3.28 2.82 2.71 2.68 2.46 2.26 2.17 2.01 2.17 2.11 2.33 2.70 2.45 2.75 2.42 2.50 2.67 2.69 2.92 2.87 2.57 2.51
0.16 0.18 0.30 0.37 0.32 0.38 0.56 0.91 1.13 1.19 1.24 1.39 1.48 1.41 1.50 1.81 1.91 1.99 2.14 2.49 2.71 2.95 3.23 3.57 3.80 3.68 3.10 2.87 2.72 2.64 2.61 2.45 2.49 2.38 2.36 2.10 2.08 2.30 2.36 2.74 2.53 2.59 2.76 2.77 2.83 2.98 2.97 2.66 2.61
0.15 0.16 0.22 0.31 0.36 0.48 0.62 1.28 1.38 1.18 1.12 1.06 1.19 1.25 1.24 1.44 1.66 1.76 1.78 1.89 2.15 2.74 2.97 2.87 3.13 3.32 3.05 2.96 2.92 2.83 2.79 2.60 2.70 2.67 2.55 2.18 2.02 2.02 2.20 2.38 2.41 2.66 2.46 2.81 3.05 3.01 3.09 3.07 2.89
0.14 0.13 0.14 0.19 0.29 0.60 0.71 1.39 1.47 1.25 1.31 1.07 1.02 1.06 1.00 0.99 1.26 1.46 1.42 1.48 1.72 2.03 2.33 2.68 3.00 3.09 3.01 2.90 2.73 2.64 2.43 2.37 2.40 2.39 2.40 2.27 2.14 2.02 2.11 2.24 2.54 2.71 2.44 3.00 2.60 2.74 3.00 3.15 2.96
0.09 0.09 0.11 0.18 0.31 0.55 0.70 1.14 1.40 1.25 1.49 1.17 0.84 0.71 0.67 0.67 0.81 0.98 1.12 1.25 1.33 1.49 1.91 2.47 2.93 3.15 3.05 2.73 2.60 2.71 2.56 2.46 2.44 2.32 2.50 2.36 2.21 2.05 1.95 2.23 2.50 2.62 2.51 2.67 2.73 3.00 2.89 2.83 2.83
0.05 0.09 0.21 0.36 0.53 0.94 0.91 1.00 1.33 1.14 0.97 0.78 0.64 0.56 0.55 0.59 0.62 0.71 0.82 1.06 1.21 1.29 1.57 2.03 2.47 2.77 2.84 2.65 2.53 2.60 2.69 2.67 2.53 2.39 2.36 2.19 2.14 2.08 2.00 2.19 2.49 2.45 2.50 2.67 2.65 2.80 2.78 2.85 2.94
0.05 0.11 0.42 0.71 0.96 1.10 0.72 0.92 1.28 0.86 0.70 0.64 0.60 0.59 0.52 0.49 0.62 0.74 0.82 0.96 0.99 1.06 1.33 1.64 1.87 2.09 2.31 2.48 2.53 2.45 2.62 2.68 2.46 2.24 2.28 2.24 2.07 2.08 2.15 2.29 2.57 2.48 2.56 2.63 2.87 2.93 2.83 2.82 2.85
0.07 0.10 0.27 0.46 0.57 0.68 0.71 1.37 1.29 0.71 0.59 0.52 0.49 0.49 0.50 0.60 0.66 0.74 0.90 0.97 0.92 0.97 1.20 1.42 1.62 1.88 2.15 2.34 2.41 2.33 2.27 2.18 2.14 2.28 2.18 2.17 2.15 2.10 2.04 2.19 2.24 2.23 2.31 2.37 2.88 2.72 2.66 2.75 2.67
0.07 0.09 0.14 0.21 0.28 0.52 0.86 1.06 0.82 0.52 0.51 0.52 0.47 0.50 0.55 0.66 0.78 0.85 0.98 1.02 0.92 0.99 1.21 1.36 1.56 1.73 1.88 2.19 2.36 2.25 2.19 2.02 1.98 2.04 2.02 1.97 2.11 2.08 2.02 1.97 2.04 2.11 2.27 2.43 2.64 2.56 2.64 2.83 2.67
0.08 0.09 0.14 0.16 0.24 0.42 0.73 0.98 1.04 0.79 0.66 0.55 0.54 0.58 0.60 0.73 0.90 1.01 1.00 1.04 1.01 1.08 1.31 1.37 1.48 1.57 1.60 1.76 1.84 1.75 1.95 1.96 2.06 2.04 1.94 1.87 1.87 1.91 1.98 2.06 2.06 2.10 2.18 2.39 2.61 2.63 2.77 2.86 2.72
0.10 0.09 0.09 0.12 0.15 0.28 0.60 0.80 0.76 0.73 0.70 0.56 0.54 0.62 0.72 0.73 0.88 0.99 0.95 0.94 0.92 0.99 1.12 1.14 1.28 1.43 1.48 1.61 1.68 1.74 1.86 1.92 1.96 1.99 1.97 1.97 1.96 1.97 1.97 2.07 2.13 2.15 2.17 2.35 2.54 2.46 2.73 2.88 2.93
0.12 0.14 0.13 0.12 0.11 0.18 0.31 0.47 0.45 0.53 0.62 0.57 0.59 0.70 0.79 0.63 0.70 0.91 0.98 1.01 0.81 0.87 0.95 1.07 1.25 1.36 1.42 1.61 1.76 1.82 1.97 2.02 1.95 1.98 2.17 2.17 2.11 2.07 2.07 2.16 2.25 2.22 2.24 2.41 2.41 2.27 2.37 2.60 2.84